LUCH 5V

Last updated on Nov. 21, 2019, 4:15 a.m. UTC

1 39727U 14023A   19323.09703904 -.00000268  00000-0  00000-0 0  9995
2 39727   0.9103 310.5165 0001955 322.2298 274.7751  1.00274712538432
UTC
Height (km)
Latitude
Longitude
Inclination
Orbital Period
UTC large
Height (km)
Speed (km/s)
/
Latitude / Longitude
Inclination (degrees)
Orbital Period (minutes)
Azimuth
Elevation
Range (km)
Doppler Factor
iOS Compass Heading
iOS Angle

Next 30 passes for location: Hong Kong

Rise time Rise Azimuth (degrees) Set time Set Azimuth (degrees) Duration Max altitude (degrees)

No matching passes for this satellites